Home > Weather > Kulmbach > Past weeks

Flag for Germany Past Weather in Kulmbach, Bavaria, Germany — Yesterday and Last 2 Weeks

Now
68 °F

Scattered clouds.


Feels Like: 68 °F
Forecast: 53 / 70 °F
Wind: 10 mph from Southwest

Location: Hof Airport

Current Time: Jun 29, 2016 at 6:22:17 PM

Latest Report: Jun 29, 2016 at 5:20 PM


Visibility: N/A

Pressure: 29.98 "Hg

Humidity: 53%

Dew Point: 50 °F

Location of KulmbachLocation

Past Weather in Kulmbach — Graph

°F

Kulmbach Temperature Yesterday

Maximum temperature yesterday: 68 °F (at 11:50 AM)
Minimum temperature yesterday: 55 °F (at 6:20 AM)
Average temperature yesterday: 63 °F

High & Low Weather Summary for the Past Weeks

 TemperatureHumidityPressure
High90 °F (Jun 24, 5:20 PM)94% (Jun 15, 6:50 AM)30.30 "Hg (Jun 15, 6:50 AM)
Low50 °F (Jun 16, 6:50 AM)27% (Jun 24, 5:20 PM)29.53 "Hg (Jun 14, 6:20 PM)
Average65 °F65%30.01 "Hg
* Reported Jun 14 4:20 PM — Jun 29 4:50 PM, Kulmbach, Weather by CustomWeather, © 2016

Note: Actual official high and low records may vary slightly from our data, if they occured in-between our weather recording intervals... More about our weather records

Advertising

Kulmbach Weather History for the Previous 24 Hours

Scroll right to see more
 ConditionsComfort  
Time TempWeatherWind HumidityBarometerVisibility
4:50 PM
Wed, Jun 29
72 °FScattered clouds.12 mph47%29.98 "HgN/A
4:20 PM70 °FPassing clouds.15 mph50%29.98 "HgN/A
3:50 PM72 °FPassing clouds.16 mph50%29.98 "HgN/A
3:20 PM70 °FPassing clouds.13 mph60%29.98 "HgN/A
2:50 PM68 °FScattered clouds.13 mph60%29.98 "HgN/A
2:20 PM70 °FPassing clouds.15 mph57%29.98 "HgN/A
1:50 PM66 °FPassing clouds.13 mph68%29.98 "HgN/A
1:20 PM66 °FBroken clouds.13 mph64%29.98 "HgN/A
12:50 PM70 °FScattered clouds.15 mph60%29.98 "HgN/A
12:20 PM66 °FBroken clouds.13 mph73%29.98 "HgN/A
11:50 AM66 °FScattered clouds.15 mph73%29.98 "HgN/A
11:20 AM64 °FPassing clouds.15 mph83%29.98 "HgN/A
10:50 AM63 °FPassing clouds.13 mph94%29.98 "HgN/A
10:20 AM63 °FDrizzle. Broken clouds.14 mph83%29.98 "HgN/A
9:50 AM63 °FPartly sunny.10 mph77%29.98 "HgN/A
9:20 AM63 °FBroken clouds.13 mph83%29.98 "HgN/A
8:50 AM63 °FScattered clouds.14 mph83%29.98 "HgN/A
8:20 AM61 °FSprinkles. Scattered clouds.14 mph88%29.95 "HgN/A
7:50 AM59 °FScattered clouds.13 mph94%29.98 "HgN/A
7:20 AM59 °FScattered clouds.12 mph88%29.95 "HgN/A
6:50 AM59 °FPartly sunny.9 mph88%29.95 "HgN/A
7:50 PM
Tue, Jun 28
64 °FSunny.6 mph68%30.04 "Hg10 mi
7:20 PM64 °FSunny.6 mph68%30.04 "Hg10 mi
6:50 PM66 °FPassing clouds.5 mph64%30.04 "HgN/A
6:20 PM66 °FPassing clouds.6 mph64%30.07 "HgN/A
Weather by CustomWeather, © 2016

See weather overviewHow to use our weather pages